#timestamp,LO_Frequency,Hit,StdDev 
1533600015.7,286046999.8,N
1533600035.5,286047002.5,Y
1533600055.3,286046999.9,P
1533600075.2,286047000.1,N
1533600095.0,286047002.2,P
1533600095.9,286047002.2,N
1533600115.7,286047000.9,N
1533600135.6,286047000.5,N
1533600155.4,286046999.9,N
1533600175.3,286047000.6,N
1533600195.1,286047000.3,N
1533600196.0,286047000.3,N
1533600215.8,286047000.5,N
1533600235.7,286047001.0,N
1533600255.5,286047000.7,N
1533600275.3,286047001.0,N
1533600295.2,286047000.4,N
1533600315.0,286046998.1,N
1533600315.9,286046998.1,N
1533600335.8,286047000.8,N
1533600355.6,286046998.5,N
1533600375.4,286046998.7,N
1533600395.3,286046998.4,N
1533600415.1,286046998.3,N
1533600435.8,286046998.3,N
1533600455.7,286046998.9,N
1533600475.5,286046998.3,N
1533600495.4,286046999.4,N
1533600515.2,286046999.4,N
1533600535.0,286046999.0,N
1533600535.9,286046999.0,N
1533600555.8,286046996.6,N
1533600575.6,286046999.6,N
1533600595.5,286046999.4,N
1533600615.3,286046999.1,N
1533600635.1,286046996.9,N
1533600655.9,286046997.2,N
1533600675.7,286046996.6,N
1533600695.5,286046999.1,N
1533600715.4,286046999.0,N
1533600735.2,286046998.8,N
1533600755.0,286046996.6,N
1533600756.0,286046996.6,N
1533600775.8,286046996.8,N
1533600795.6,286046996.5,N
1533600815.5,286046996.8,N
1533600835.3,286046997.5,N
1533600855.1,286046997.6,N
1533600875.9,286046997.4,N
1533600895.7,286046995.4,Y
1533600915.6,286046996.9,P
1533600935.4,286046996.5,P
1533600955.2,286046996.5,P
1533600975.1,286046999.0,N
1533600976.0,286046999.0,N
1533600995.8,286046999.3,N
1533601015.6,286046998.6,N
1533601035.5,286046999.6,N
1533601055.3,286046998.7,N
1533601075.2,286046999.1,N
1533601095.9,286046999.4,N
1533601115.7,286046999.3,N
1533601135.6,286046997.3,N
1533601155.4,286046997.7,N
1533601175.3,286046999.2,N
1533601195.1,286046997.1,N
1533601196.0,286046997.1,N
1533601215.8,286046997.4,N
1533601235.7,286046997.5,N
1533601255.5,286046996.8,Y
1533601275.4,286047000.6,P
1533601295.2,286047000.6,N
1533601315.0,286047000.8,N
1533601315.9,286047000.8,N
1533601335.8,286047001.2,N
1533601355.6,286046998.8,N
1533601375.4,286046998.5,N
1533601395.3,286046998.1,N
1533601415.1,286046998.5,N
1533601435.9,286046998.9,N
1533601455.7,286046998.4,N
1533601475.5,286046998.7,N
1533601495.4,286046998.4,N
1533601515.2,286046998.7,N
1533601535.0,286046998.8,N
1533601536.0,286046998.8,N
1533601555.8,286046999.1,N
1533601575.6,286046996.6,Y
1533601595.5,286046998.2,P
1533601615.3,286047001.2,N
1533601635.1,286047000.8,N
1533601655.9,286047000.7,N
1533601675.7,286047000.6,N
1533601695.6,286047000.7,N
1533601715.4,286046998.9,N
1533601735.2,286046999.4,N
1533601755.1,286046999.0,N
1533601756.0,286046999.0,N
1533601775.8,286046999.1,N
1533601795.6,286046998.9,N
1533601815.5,286046999.0,N
1533601835.3,286046999.5,N
1533601855.2,286046998.9,N
1533601875.9,286046999.0,N
1533601895.7,286046999.4,N
1533601915.6,286046998.4,N
1533601935.4,286047000.9,N
1533601955.2,286047001.0,N
1533601975.1,286047000.9,N
1533601976.0,286047000.9,N
1533601995.8,286047001.1,N
1533602015.7,286047000.7,N
1533602035.5,286046998.2,N
1533602055.3,286046998.6,N
1533602075.2,286046998.2,N
1533602095.0,286046998.2,N
1533602095.9,286046998.2,N
1533602115.8,286047000.8,N
1533602135.6,286047001.2,N
1533602155.4,286046998.1,N
1533602175.3,286047001.2,N
1533602195.1,286046998.2,N
1533602215.8,286046998.3,N
1533602235.7,286046998.1,N
1533602255.5,286046998.1,N
1533602275.4,286047001.0,N
1533602295.2,286047001.0,N
1533602315.0,286046998.5,N
1533602315.9,286046998.5,N
1533602335.8,286047000.8,N
1533602355.6,286047000.7,N
1533602375.4,286047000.2,N
1533602395.3,286047000.3,N
1533602415.1,286047000.9,N
1533602435.9,286046998.6,N
1533602455.7,286046998.5,N
1533602475.5,286046998.6,N
1533602495.4,286046998.4,N
1533602515.2,286046998.3,N
1533602535.1,286046999.3,N
1533602536.0,286046999.3,N
1533602555.8,286046998.8,N
1533602575.6,286046998.9,N
1533602595.5,286046999.1,N
1533602615.3,286046999.6,N
1533602635.1,286046998.8,N
1533602655.9,286046998.5,N
1533602675.7,286046998.3,N
1533602695.6,286046998.5,N
1533602715.5,286046998.4,N
1533602735.4,286046998.4,N
1533602755.2,286046998.2,N
1533602775.1,286046998.2,N
1533602776.0,286046998.2,N
1533602795.8,286047001.1,N
1533602815.6,286047000.9,N
1533602835.5,286047001.1,N
1533602855.3,286047000.6,N
1533602875.2,286047000.7,N
1533602895.9,286047001.2,N
1533602915.7,286046999.9,N
1533602935.6,286047000.6,N
1533602955.4,286047001.1,N
1533602975.2,286047000.4,N
1533602995.1,286047000.4,N
1533602996.0,286047000.4,N
1533603015.8,286047000.6,N
1533603035.7,286047000.8,N
1533603055.5,286047000.8,N
1533603075.3,286047001.1,N
1533603095.2,286046999.9,N
1533603115.0,286047000.9,N
1533603115.9,286047000.9,N
1533603135.8,286047001.0,N
1533603155.6,286047000.7,N
1533603175.4,286047000.9,N
1533603195.3,286047000.6,N
1533603215.1,286047001.1,N
1533603235.9,286047001.2,N
1533603255.7,286047000.7,N
1533603275.5,286047001.0,N
1533603295.4,286047001.0,N
1533603315.2,286047001.0,N
1533603335.0,286047000.7,N
1533603335.9,286047000.7,N
1533603355.8,286047001.1,Y
1533603375.6,286046998.2,P
1533603395.5,286046998.2,N
1533603415.3,286046999.0,N
1533603435.1,286046998.7,N
1533603455.9,286047001.2,N
1533603475.7,286046998.2,N
1533603495.5,286046998.1,N
1533603515.4,286046998.9,N
1533603535.2,286046998.8,N
1533603555.1,286046998.5,N
1533603556.0,286046998.5,N
1533603575.8,286047000.7,N
1533603595.6,286046998.9,N
